When you browse on this site, cookies collect data to enhance your experience and personalize the content and advertising you see.
Visit our Privacy Policy to learn more. By continuing to use the site, you agree to this use of cookies and data.
  • en Belgique
  • Liste des pays
  • À 7 jours
  • Température de l'eau
  • Carte météo
  • Widgets météo
  • user-avatar
    Se connecter

    Météo par heure à Samroung

    Ce jour, 19 Novembre, Mardi

    Heure Température Précipitation Vent Pression Humidité
    00:00 +26°C° 0.4 mm 1 m/s 756 mmHg 91%
    01:00 +26°C° 0 mm 1 m/s 756 mmHg 92%
    02:00 +26°C° 0.2 mm 1 m/s 756 mmHg 93%
    03:00 +25°C° 0.2 mm 1 m/s 756 mmHg 93%
    04:00 +25°C° 0.2 mm 2 m/s 756 mmHg 93%
    05:00 +26°C° 0.1 mm 2 m/s 756 mmHg 92%
    06:00 +26°C° 0.1 mm 2 m/s 756 mmHg 91%
    07:00 +27°C° 0 mm 1 m/s 756 mmHg 89%
    08:00 +29°C° 0 mm 2 m/s 757 mmHg 79%
    09:00 +31°C° 0 mm 2 m/s 757 mmHg 69%
    10:00 +32°C° 0 mm 2 m/s 757 mmHg 59%
    11:00 +34°C° 0 mm 3 m/s 757 mmHg 57%
    12:00 +34°C° 0 mm 3 m/s 756 mmHg 54%
    13:00 +35°C° 0 mm 3 m/s 756 mmHg 52%
    14:00 +34°C° 0 mm 3 m/s 755 mmHg 55%
    15:00 +34°C° 0 mm 3 m/s 755 mmHg 58%
    16:00 +33°C° 0 mm 3 m/s 755 mmHg 61%
    17:00 +30°C° 0 mm 3 m/s 755 mmHg 67%
    18:00 +28°C° 0 mm 3 m/s 755 mmHg 73%
    19:00 +27°C° 0 mm 3 m/s 756 mmHg 79%
    20:00 +26°C° 0 mm 2 m/s 756 mmHg 80%
    21:00 +26°C° 0 mm 2 m/s 757 mmHg 81%
    22:00 +26°C° 0 mm 2 m/s 757 mmHg 82%
    23:00 +25°C° 0 mm 2 m/s 757 mmHg 81%

    Demain, 20 Novembre, Mercredi

    Heure Température Précipitation Vent Pression Humidité
    00:00 +25°C° 0 mm 2 m/s 757 mmHg 81%
    01:00 +25°C° 0 mm 2 m/s 756 mmHg 81%
    02:00 +25°C° 0 mm 2 m/s 756 mmHg 82%
    03:00 +24°C° 0 mm 2 m/s 756 mmHg 83%
    04:00 +24°C° 0 mm 2 m/s 755 mmHg 84%
    05:00 +24°C° 0 mm 2 m/s 756 mmHg 83%
    06:00 +24°C° 0 mm 2 m/s 757 mmHg 82%
    07:00 +24°C° 0 mm 2 m/s 757 mmHg 81%
    08:00 +26°C° 0 mm 2 m/s 757 mmHg 74%
    09:00 +28°C° 0 mm 2 m/s 758 mmHg 67%
    10:00 +30°C° 0 mm 2 m/s 758 mmHg 60%
    11:00 +31°C° 0 mm 2 m/s 757 mmHg 57%
    12:00 +31°C° 0 mm 3 m/s 757 mmHg 55%
    13:00 +33°C° 0 mm 3 m/s 756 mmHg 53%
    14:00 +31°C° 0 mm 3 m/s 756 mmHg 56%
    15:00 +31°C° 0 mm 3 m/s 755 mmHg 60%
    16:00 +30°C° 0 mm 2 m/s 755 mmHg 64%
    17:00 +29°C° 0 mm 2 m/s 755 mmHg 70%
    18:00 +27°C° 0 mm 2 m/s 755 mmHg 76%
    19:00 +26°C° 0 mm 2 m/s 756 mmHg 82%
    20:00 +26°C° 0 mm 2 m/s 756 mmHg 82%
    21:00 +25°C° 0 mm 2 m/s 757 mmHg 83%
    22:00 +25°C° 0 mm 1 m/s 757 mmHg 83%
    23:00 +25°C° 0 mm 1 m/s 757 mmHg 83%

    Après-demain, 21 Novembre, Jeudi

    Heure Température Précipitation Vent Pression Humidité
    00:00 +25°C° 0 mm 1 m/s 757 mmHg 83%
    01:00 +25°C° 0 mm 1 m/s 757 mmHg 84%
    02:00 +24°C° 0 mm 2 m/s 756 mmHg 84%
    03:00 +24°C° 0 mm 2 m/s 756 mmHg 84%
    04:00 +24°C° 0 mm 2 m/s 756 mmHg 85%
    05:00 +24°C° 0 mm 2 m/s 756 mmHg 84%
    06:00 +24°C° 0 mm 2 m/s 757 mmHg 82%
    07:00 +24°C° 0 mm 2 m/s 757 mmHg 81%
    08:00 +26°C° 0 mm 3 m/s 757 mmHg 73%
    09:00 +27°C° 0 mm 3 m/s 758 mmHg 65%
    10:00 +29°C° 0 mm 3 m/s 758 mmHg 56%
    11:00 +30°C° 0 mm 3 m/s 757 mmHg 56%
    12:00 +31°C° 0 mm 3 m/s 757 mmHg 56%
    13:00 +31°C° 0 mm 3 m/s 756 mmHg 56%
    14:00 +31°C° 0 mm 3 m/s 756 mmHg 59%
    15:00 +31°C° 0 mm 3 m/s 755 mmHg 61%
    16:00 +31°C° 0 mm 3 m/s 755 mmHg 64%
    17:00 +29°C° 0 mm 2 m/s 755 mmHg 70%
    18:00 +27°C° 0 mm 2 m/s 756 mmHg 77%
    19:00 +26°C° 0 mm 2 m/s 756 mmHg 84%
    20:00 +26°C° 0 mm 2 m/s 757 mmHg 84%
    21:00 +25°C° 0 mm 2 m/s 757 mmHg 84%
    22:00 +25°C° 0 mm 1 m/s 757 mmHg 84%
    23:00 +25°C° 0 mm 1 m/s 757 mmHg 83%

    22 Novembre, Vendredi

    Heure Température Précipitation Vent Pression Humidité
    00:00 +25°C° 0 mm 2 m/s 757 mmHg 82%
    01:00 +25°C° 0 mm 2 m/s 756 mmHg 82%
    02:00 +25°C° 0 mm 2 m/s 756 mmHg 81%
    03:00 +25°C° 0 mm 2 m/s 756 mmHg 81%
    04:00 +24°C° 0 mm 2 m/s 756 mmHg 80%
    05:00 +25°C° 0 mm 2 m/s 756 mmHg 80%
    06:00 +25°C° 0 mm 3 m/s 757 mmHg 80%
    07:00 +25°C° 0 mm 3 m/s 757 mmHg 80%
    08:00 +27°C° 0 mm 3 m/s 757 mmHg 73%
    09:00 +29°C° 0 mm 3 m/s 757 mmHg 67%
    10:00 +31°C° 0 mm 3 m/s 757 mmHg 60%
    11:00 +33°C° 0 mm 3 m/s 757 mmHg 59%
    12:00 +34°C° 0 mm 3 m/s 756 mmHg 57%
    13:00 +35°C° 0 mm 3 m/s 756 mmHg 55%
    14:00 +34°C° 0 mm 3 m/s 755 mmHg 57%
    15:00 +34°C° 0 mm 3 m/s 755 mmHg 59%
    16:00 +32°C° 0 mm 2 m/s 754 mmHg 62%
    17:00 +30°C° 0 mm 2 m/s 755 mmHg 69%
    18:00 +29°C° 0 mm 2 m/s 756 mmHg 77%
    19:00 +27°C° 0 mm 1 m/s 756 mmHg 85%
    20:00 +27°C° 0 mm 1 m/s 756 mmHg 84%
    21:00 +26°C° 0 mm 1 m/s 757 mmHg 83%
    22:00 +26°C° 0 mm 1 m/s 757 mmHg 83%
    23:00 +26°C° 0 mm 1 m/s 757 mmHg 82%

    23 Novembre, Samedi

    Heure Température Précipitation Vent Pression Humidité
    00:00 +26°C° 0 mm 1 m/s 756 mmHg 82%
    01:00 +26°C° 0 mm 1 m/s 756 mmHg 82%
    02:00 +26°C° 0 mm 1 m/s 756 mmHg 82%
    03:00 +26°C° 0 mm 1 m/s 756 mmHg 83%
    04:00 +25°C° 0 mm 2 m/s 756 mmHg 83%
    05:00 +26°C° 0 mm 1 m/s 756 mmHg 82%
    06:00 +26°C° 0 mm 1 m/s 756 mmHg 81%
    07:00 +26°C° 0 mm 1 m/s 757 mmHg 80%
    08:00 +28°C° 0 mm 2 m/s 757 mmHg 73%
    09:00 +30°C° 0 mm 2 m/s 757 mmHg 65%
    10:00 +32°C° 0 mm 2 m/s 758 mmHg 58%
    11:00 +34°C° 0 mm 2 m/s 757 mmHg 59%
    12:00 +34°C° 0 mm 2 m/s 756 mmHg 60%
    13:00 +34°C° 0 mm 2 m/s 756 mmHg 61%
    14:00 +32°C° 0.6 mm 2 m/s 755 mmHg 67%
    15:00 +31°C° 0.6 mm 2 m/s 755 mmHg 73%
    16:00 +31°C° 0.6 mm 1 m/s 755 mmHg 80%
    17:00 +29°C° 1 mm 1 m/s 755 mmHg 84%
    18:00 +28°C° 1 mm 1 m/s 756 mmHg 88%
    19:00 +27°C° 1 mm 1 m/s 756 mmHg 92%
    20:00 +27°C° 0.4 mm 1 m/s 756 mmHg 91%
    21:00 +26°C° 0.4 mm 1 m/s 757 mmHg 91%
    22:00 +26°C° 0.4 mm 1 m/s 757 mmHg 91%
    23:00 +26°C° 0.2 mm 1 m/s 757 mmHg 91%

    24 Novembre, Dimanche

    Heure Température Précipitation Vent Pression Humidité
    00:00 +26°C° 0.2 mm 1 m/s 756 mmHg 91%
    01:00 +26°C° 0.2 mm 1 m/s 756 mmHg 92%
    02:00 +26°C° 0.1 mm 1 m/s 756 mmHg 91%
    03:00 +26°C° 0.1 mm 1 m/s 755 mmHg 91%
    04:00 +26°C° 0.1 mm 1 m/s 755 mmHg 91%
    05:00 +26°C° 0 mm 1 m/s 756 mmHg 91%
    06:00 +26°C° 0 mm 1 m/s 756 mmHg 90%
    07:00 +27°C° 0 mm 2 m/s 756 mmHg 90%
    08:00 +29°C° 0 mm 2 m/s 757 mmHg 81%
    09:00 +31°C° 0 mm 2 m/s 757 mmHg 72%
    10:00 +34°C° 0 mm 2 m/s 757 mmHg 64%
    11:00 +34°C° 0 mm 2 m/s 756 mmHg 62%
    12:00 +34°C° 0 mm 2 m/s 756 mmHg 61%
    13:00 +35°C° 0 mm 2 m/s 755 mmHg 60%
    14:00 +34°C° 0.4 mm 2 m/s 755 mmHg 64%
    15:00 +32°C° 0.4 mm 2 m/s 754 mmHg 69%
    16:00 +32°C° 0.4 mm 2 m/s 754 mmHg 74%
    17:00 +30°C° 0.3 mm 2 m/s 755 mmHg 79%
    18:00 +29°C° 0.3 mm 1 m/s 755 mmHg 84%
    19:00 +27°C° 0.3 mm 1 m/s 755 mmHg 90%
    20:00 +27°C° 0 mm 1 m/s 756 mmHg 89%
    21:00 +27°C° 0 mm 1 m/s 756 mmHg 89%
    22:00 +27°C° 0 mm 1 m/s 756 mmHg 89%
    23:00 +27°C° 0 mm 1 m/s 756 mmHg 89%
    Voir plus